Regional Weather Roundup
Issued by NWS

Home | Current Version | Previous Version | Text Only | Print | Product List | Glossary On
Versions: 1 2 3 4 5 6 7 8 9 10 11 12 13 14 15 16 17 18 19 20 21 22 23 24 25 26 27 28 29 30 31 32 33 34 35 36 37 38 39 40 41 42 43 44 45 46 47 48 49 50
000
ASUS43 KTOP 131008
RWRKS

WEATHER ROUNDUP FOR KANSAS
NATIONAL WEATHER SERVICE GOODLAND KS
400 AM CST SAT FEB 13 2016

NOTE:  "FAIR" INDICATES FEW OR NO CLOUDS BELOW 12,000 FEET WITH NO
SIGNIFICANT WEATHER AND/OR OBSTRUCTIONS TO VISIBILITY.

KSZ001>006-013>018-027>032-041>047-131100-
NORTHWEST KANSAS

CITY           SKY/WX    TMP DP  RH WIND       PRES   REMARKS
GOODLAND       CLOUDY    26  24  92 S20       30.29F WCI  12
HAYS           CLOUDY    21   9  58 E10       30.45F WCI  10
HILL CITY      CLOUDY    24  19  81 E10       30.43F WCI  14
RUSSELL        CLOUDY    19  15  84 E8        30.46S
$$

KSZ061>065-074>080-084>089-131100-
SOUTHWEST KANSAS

CITY           SKY/WX    TMP DP  RH WIND       PRES   REMARKS
DODGE CITY     CLOUDY    21  19  92 SE7       30.38F
ELKHART          N/A     24  18  78 SE14        N/A  WCI  12
GARDEN CITY    CLOUDY    23  21  92 SE9       30.35F
GREAT BEND     CLOUDY    21  10  63 E10       30.45F WCI  10
LIBERAL        CLOUDY    25  18  74 SE6       30.36S
PRATT          CLOUDY    21  16  82 E6        30.43F
$$

KSZ066>073-081>083-090>101-131100-
SOUTHEAST KANSAS

CITY           SKY/WX    TMP DP  RH WIND       PRES   REMARKS
CHANUTE        CLOUDY    26  10  50 NE10      30.54F WCI  16
COFFEYVILLE    CLOUDY    28   9  44 NE13      30.54S WCI  17
HUTCHINSON     CLOUDY    22  13  68 E7        30.49F
MEDICINE LODGE   N/A     25  20  81 NE3       30.44F
NEWTON         CLOUDY    21   9  58 E7        30.50F
PARSONS        CLOUDY    27  11  51 NE7       30.55S
WICHITA INTL   CLOUDY    26  13  57 E14       30.48F WCI  14
WICHITA JABRA  CLOUDY    22  12  65 E7        30.49F
WICHITA MCCONL CLOUDY    25  13  59 E8        30.48F
WINFIELD       CLOUDY    26  12  55 NE8       30.50F
$$

KSZ007>012-019>026-033>040-048>060-102>105-131100-
NORTHEAST KANSAS

CITY           SKY/WX    TMP DP  RH WIND       PRES   REMARKS
CONCORDIA      CLOUDY    20  11  68 E8        30.52F
EMPORIA        CLOUDY    21   7  54 NE7       30.54F
LAWRENCE       CLOUDY    19   5  54 NE7       30.60F
MANHATTAN      CLOUDY    21  10  62 E10       30.57F WCI  10
MARYSVILLE     CLOUDY    19   5  53 E6        30.57S
OLATHE IND     CLOUDY    19   4  51 NE9       30.58S
OLATHE EXE     CLOUDY    17   3  54 NE8       30.57F
SALINA         CLOUDY    24  12  60 E6        30.53F
TOPEKA BILLARD CLOUDY    20   4  50 N9        30.59F
TOPEKA FORBES  CLOUDY    20   5  52 NE8       30.57S
$$



USA.gov is the U.S. government's official web portal to all federal, state and local government web resources and services.